Weather History for Fort Lauderdale, FL

Change the Weather History Date:

Sunday, December 2, 2012

  Actual Average Record
Temperature  
Mean Temperature 76 °F -  
Max Temperature 80 °F 79 °F 88 °F (1948)
Min Temperature 73 °F 63 °F 38 °F (1956)
Cooling Degree Days 12    
Growing Degree Days 26 (Base 50)    
Moisture  
Dew Point 63 °F    
Average Humidity 67    
Maximum Humidity 76    
Minimum Humidity 58    
Precipitation  
Precipitation 0.04 in - - ()
Sea Level Pressure  
Sea Level Pressure 30.19 in    
Wind  
Wind Speed 12 mph (ENE)    
Max Wind Speed 17 mph    
Max Gust Speed 24 mph    
Visibility 10 miles    
Events Rain    
Averages and records for this station are not official NWS values.
T = Trace of Precipitation, MM = Missing Value Source: NWS Daily Summary

Daily Weather History Graph

Daily Weather History Graph

Search for Another Location

Airport:

Trip Planner

Search our weather history database for the weather conditions in past years. The results will help you decide how hot, cold, wet, or windy it might be!

Date:

Astronomy

Dec. 02, 2012 Rise Set
Actual Time 6:52 AM EST 5:28 PM EST
Civil Twilight 6:27 AM EST 5:53 PM EST
Nautical Twilight 5:58 AM EST 6:21 PM EST
Astronomical Twilight 5:30 AM EST 6:50 PM EST
Moon 9:05 PM EST (12/2) 9:48 AM EST (12/2)
Length of Visible Light 11h 26m
Length of Day
10h 36m
Waning Gibbous, 86% of the Moon is Illuminated
Dec 2
Waning Gibbous
Dec 6
Last Quarter
Dec 13
New
Dec 20
First Quarter
Dec 28
Full

Hourly Weather History & Observations

Time (EST) Temp. Heat Index Dew Point Humidity Pressure Visibility Wind Dir Wind Speed Gust Speed Precip Events Conditions
12:53 AM 73.0 °F - 63.0 °F 71% 30.18 in 10.0 mi ENE 10.4 mph - N/A   Clear
1:53 AM 73.0 °F - 63.0 °F 71% 30.17 in 10.0 mi ENE 9.2 mph - N/A   Clear
2:53 AM 73.0 °F - 63.0 °F 71% 30.16 in 10.0 mi ENE 13.8 mph - N/A   Partly Cloudy
3:53 AM 73.0 °F - 63.0 °F 71% 30.16 in 10.0 mi ENE 10.4 mph 19.6 mph N/A   Partly Cloudy
4:53 AM 73.0 °F - 63.0 °F 71% 30.17 in 10.0 mi ENE 10.4 mph - N/A   Scattered Clouds
5:53 AM 73.0 °F - 63.0 °F 71% 30.18 in 10.0 mi ENE 8.1 mph - N/A   Scattered Clouds
6:53 AM 73.0 °F - 63.0 °F 71% 30.19 in 10.0 mi ENE 11.5 mph - N/A   Scattered Clouds
7:53 AM 75.0 °F - 62.1 °F 64% 30.21 in 10.0 mi ENE 15.0 mph - N/A   Partly Cloudy
8:53 AM 75.9 °F - 63.0 °F 64% 30.22 in 10.0 mi ENE 9.2 mph 18.4 mph N/A   Scattered Clouds
9:53 AM 78.1 °F - 64.0 °F 62% 30.24 in 10.0 mi East 17.3 mph - N/A   Scattered Clouds
10:53 AM 79.0 °F - 64.0 °F 60% 30.23 in 10.0 mi ENE 17.3 mph 24.2 mph N/A   Scattered Clouds
11:53 AM 80.1 °F 81.7 °F 64.0 °F 58% 30.22 in 10.0 mi ENE 15.0 mph 24.2 mph N/A   Scattered Clouds
12:53 PM 78.1 °F - 64.9 °F 64% 30.19 in 10.0 mi ENE 15.0 mph - N/A   Scattered Clouds
1:53 PM 78.1 °F - 64.9 °F 64% 30.17 in 10.0 mi ENE 15.0 mph - 0.00 in   Scattered Clouds
2:53 PM 80.1 °F 81.7 °F 64.0 °F 58% 30.16 in 10.0 mi East 15.0 mph 23.0 mph N/A   Scattered Clouds
3:53 PM 79.0 °F - 64.0 °F 60% 30.15 in 10.0 mi ENE 17.3 mph 21.9 mph 0.00 in   Scattered Clouds
4:53 PM 75.9 °F - 62.1 °F 62% 30.16 in 10.0 mi East 15.0 mph - 0.00 in   Mostly Cloudy
5:53 PM 75.9 °F - 62.1 °F 62% 30.17 in 10.0 mi East 13.8 mph - N/A   Scattered Clouds
6:53 PM 75.0 °F - 63.0 °F 66% 30.19 in 10.0 mi ENE 16.1 mph 20.7 mph N/A   Overcast
7:53 PM 73.0 °F - 63.0 °F 71% 30.19 in 10.0 mi East 9.2 mph - 0.01 in Rain Light Rain
8:53 PM 73.0 °F - 64.9 °F 76% 30.20 in 10.0 mi ENE 12.7 mph - 0.03 in   Mostly Cloudy
9:53 PM 73.0 °F - 64.0 °F 73% 30.20 in 10.0 mi ENE 11.5 mph - N/A   Scattered Clouds
10:53 PM 73.0 °F - 64.0 °F 73% 30.21 in 10.0 mi ENE 9.2 mph - N/A   Partly Cloudy
11:53 PM 73.0 °F - 64.0 °F 73% 30.20 in 10.0 mi ENE 12.7 mph - N/A   Scattered Clouds